When you browse on this site, cookies collect data to enhance your experience and personalize the content and advertising you see.
Visit our Privacy Policy to learn more. By continuing to use the site, you agree to this use of cookies and data.
  • In Österreich
  • Länderverzeichnis
  • Für 7 Tage
  • Wassertemperatur
  • Wetterkarte
  • News
  • Widgets
  • user-avatar
    Anmelden

    Stündliche Wetter Tepeji de Ocampo

    Heute, 17 November, Sonntag

    Zeit Temperatur Niederschläge Wind Luftdruck Luftfeuchtigkeit
    00:00 +12°C° 0 mm 0 m/S 588 mmHg 87%
    01:00 +12°C° 0 mm 0 m/S 588 mmHg 86%
    02:00 +12°C° 0 mm 0 m/S 587 mmHg 84%
    03:00 +12°C° 0 mm 0 m/S 587 mmHg 85%
    04:00 +12°C° 0 mm 0 m/S 587 mmHg 85%
    05:00 +11°C° 0 mm 0 m/S 587 mmHg 85%
    06:00 +13°C° 0 mm 0 m/S 588 mmHg 78%
    07:00 +15°C° 0 mm 0 m/S 589 mmHg 72%
    08:00 +16°C° 0 mm 0 m/S 590 mmHg 65%
    09:00 +20°C° 0 mm 1 m/S 590 mmHg 58%
    10:00 +21°C° 0 mm 1 m/S 590 mmHg 51%
    11:00 +21°C° 0 mm 2 m/S 591 mmHg 44%
    12:00 +23°C° 0 mm 2 m/S 590 mmHg 44%
    13:00 +22°C° 0 mm 3 m/S 589 mmHg 44%
    14:00 +22°C° 0 mm 3 m/S 589 mmHg 43%
    15:00 +21°C° 0 mm 3 m/S 589 mmHg 49%
    16:00 +20°C° 0 mm 3 m/S 588 mmHg 54%
    17:00 +18°C° 0 mm 3 m/S 588 mmHg 60%
    18:00 +18°C° 0.1 mm 2 m/S 589 mmHg 63%
    19:00 +17°C° 0.1 mm 2 m/S 589 mmHg 67%
    20:00 +18°C° 0.1 mm 1 m/S 590 mmHg 70%
    21:00 +16°C° 0.1 mm 1 m/S 590 mmHg 72%
    22:00 +16°C° 0.1 mm 1 m/S 589 mmHg 73%
    23:00 +16°C° 0.1 mm 1 m/S 589 mmHg 75%

    Morgen, 18 November, Montag

    Zeit Temperatur Niederschläge Wind Luftdruck Luftfeuchtigkeit
    00:00 +15°C° 0 mm 1 m/S 589 mmHg 75%
    01:00 +15°C° 0 mm 1 m/S 588 mmHg 76%
    02:00 +14°C° 0 mm 1 m/S 588 mmHg 77%
    03:00 +13°C° 0 mm 0 m/S 588 mmHg 78%
    04:00 +12°C° 0 mm 0 m/S 587 mmHg 79%
    05:00 +12°C° 0 mm 0 m/S 587 mmHg 80%
    06:00 +13°C° 0 mm 0 m/S 588 mmHg 74%
    07:00 +15°C° 0 mm 0 m/S 589 mmHg 67%
    08:00 +16°C° 0 mm 0 m/S 590 mmHg 61%
    09:00 +18°C° 0 mm 0 m/S 590 mmHg 55%
    10:00 +19°C° 0 mm 0 m/S 590 mmHg 50%
    11:00 +23°C° 0 mm 1 m/S 590 mmHg 45%
    12:00 +23°C° 0 mm 1 m/S 590 mmHg 44%
    13:00 +24°C° 0 mm 2 m/S 589 mmHg 43%
    14:00 +24°C° 0 mm 3 m/S 589 mmHg 43%
    15:00 +22°C° 0.1 mm 3 m/S 589 mmHg 50%
    16:00 +20°C° 0.1 mm 3 m/S 588 mmHg 57%
    17:00 +19°C° 0.1 mm 3 m/S 588 mmHg 63%
    18:00 +18°C° 0.1 mm 2 m/S 588 mmHg 69%
    19:00 +17°C° 0.1 mm 2 m/S 588 mmHg 75%
    20:00 +16°C° 0.1 mm 1 m/S 588 mmHg 81%
    21:00 +16°C° 0.1 mm 1 m/S 588 mmHg 81%
    22:00 +16°C° 0.1 mm 1 m/S 588 mmHg 81%
    23:00 +15°C° 0.1 mm 1 m/S 588 mmHg 81%

    übermorgen, 19 November, Dienstag

    Zeit Temperatur Niederschläge Wind Luftdruck Luftfeuchtigkeit
    00:00 +15°C° 0 mm 1 m/S 588 mmHg 82%
    01:00 +15°C° 0 mm 1 m/S 587 mmHg 82%
    02:00 +14°C° 0 mm 1 m/S 587 mmHg 83%
    03:00 +14°C° 0 mm 1 m/S 587 mmHg 83%
    04:00 +14°C° 0 mm 1 m/S 587 mmHg 83%
    05:00 +13°C° 0 mm 1 m/S 587 mmHg 83%
    06:00 +15°C° 0 mm 1 m/S 588 mmHg 77%
    07:00 +16°C° 0 mm 1 m/S 589 mmHg 71%
    08:00 +17°C° 0 mm 0 m/S 590 mmHg 65%
    09:00 +20°C° 0 mm 1 m/S 590 mmHg 59%
    10:00 +22°C° 0 mm 1 m/S 590 mmHg 53%
    11:00 +23°C° 0 mm 2 m/S 590 mmHg 47%
    12:00 +23°C° 0 mm 2 m/S 590 mmHg 47%
    13:00 +23°C° 0 mm 2 m/S 589 mmHg 47%
    14:00 +23°C° 0 mm 2 m/S 589 mmHg 47%
    15:00 +21°C° 0 mm 2 m/S 589 mmHg 53%
    16:00 +20°C° 0 mm 2 m/S 588 mmHg 59%
    17:00 +19°C° 0 mm 2 m/S 588 mmHg 64%
    18:00 +18°C° 0 mm 2 m/S 588 mmHg 69%
    19:00 +18°C° 0 mm 1 m/S 588 mmHg 73%
    20:00 +15°C° 0 mm 0 m/S 588 mmHg 78%
    21:00 +15°C° 0 mm 0 m/S 588 mmHg 79%
    22:00 +15°C° 0 mm 0 m/S 588 mmHg 80%
    23:00 +14°C° 0 mm 0 m/S 588 mmHg 81%

    20 November, Mittwoch

    Zeit Temperatur Niederschläge Wind Luftdruck Luftfeuchtigkeit
    00:00 +15°C° 0 mm 1 m/S 588 mmHg 81%
    01:00 +15°C° 0 mm 1 m/S 587 mmHg 81%
    02:00 +15°C° 0 mm 1 m/S 587 mmHg 81%
    03:00 +15°C° 0 mm 1 m/S 587 mmHg 81%
    04:00 +14°C° 0 mm 1 m/S 587 mmHg 81%
    05:00 +14°C° 0 mm 1 m/S 587 mmHg 82%
    06:00 +16°C° 0 mm 1 m/S 588 mmHg 76%
    07:00 +18°C° 0 mm 1 m/S 589 mmHg 70%
    08:00 +17°C° 0 mm 0 m/S 590 mmHg 65%
    09:00 +19°C° 0 mm 0 m/S 590 mmHg 58%
    10:00 +21°C° 0 mm 0 m/S 591 mmHg 51%
    11:00 +23°C° 0 mm 0 m/S 591 mmHg 44%
    12:00 +25°C° 0 mm 1 m/S 591 mmHg 42%
    13:00 +25°C° 0 mm 1 m/S 590 mmHg 40%
    14:00 +25°C° 0 mm 2 m/S 590 mmHg 38%
    15:00 +24°C° 0.1 mm 2 m/S 589 mmHg 43%
    16:00 +23°C° 0.1 mm 2 m/S 589 mmHg 47%
    17:00 +21°C° 0.1 mm 2 m/S 589 mmHg 52%
    18:00 +20°C° 0 mm 2 m/S 589 mmHg 55%
    19:00 +20°C° 0 mm 1 m/S 589 mmHg 57%
    20:00 +20°C° 0 mm 1 m/S 589 mmHg 60%
    21:00 +19°C° 0 mm 1 m/S 589 mmHg 62%
    22:00 +17°C° 0 mm 0 m/S 589 mmHg 64%
    23:00 +17°C° 0 mm 0 m/S 589 mmHg 66%

    21 November, Donnerstag

    Zeit Temperatur Niederschläge Wind Luftdruck Luftfeuchtigkeit
    00:00 +16°C° 0 mm 0 m/S 589 mmHg 67%
    01:00 +18°C° 0 mm 1 m/S 588 mmHg 68%
    02:00 +16°C° 0 mm 1 m/S 588 mmHg 69%
    03:00 +16°C° 0 mm 1 m/S 588 mmHg 71%
    04:00 +16°C° 0 mm 1 m/S 588 mmHg 72%
    05:00 +15°C° 0 mm 1 m/S 588 mmHg 74%
    06:00 +16°C° 0 mm 1 m/S 589 mmHg 70%
    07:00 +17°C° 0 mm 0 m/S 590 mmHg 66%
    08:00 +18°C° 0 mm 0 m/S 591 mmHg 62%
    09:00 +20°C° 0 mm 0 m/S 591 mmHg 56%
    10:00 +21°C° 0 mm 0 m/S 591 mmHg 50%
    11:00 +25°C° 0 mm 1 m/S 591 mmHg 44%
    12:00 +25°C° 0 mm 1 m/S 591 mmHg 42%
    13:00 +25°C° 0 mm 1 m/S 590 mmHg 40%
    14:00 +25°C° 0 mm 1 m/S 590 mmHg 38%
    15:00 +24°C° 0.1 mm 1 m/S 590 mmHg 42%
    16:00 +23°C° 0.1 mm 2 m/S 590 mmHg 46%
    17:00 +21°C° 0.1 mm 2 m/S 589 mmHg 50%
    18:00 +21°C° 0.1 mm 1 m/S 589 mmHg 55%
    19:00 +20°C° 0.1 mm 1 m/S 589 mmHg 60%
    20:00 +20°C° 0.1 mm 1 m/S 589 mmHg 65%
    21:00 +19°C° 0 mm 1 m/S 589 mmHg 67%
    22:00 +19°C° 0 mm 1 m/S 589 mmHg 68%
    23:00 +18°C° 0 mm 1 m/S 589 mmHg 70%

    22 November, Freitag

    Zeit Temperatur Niederschläge Wind Luftdruck Luftfeuchtigkeit
    00:00 +18°C° 0 mm 1 m/S 588 mmHg 72%
    01:00 +16°C° 0 mm 1 m/S 588 mmHg 73%
    02:00 +16°C° 0 mm 1 m/S 587 mmHg 74%
    03:00 +15°C° 0 mm 1 m/S 587 mmHg 75%
    04:00 +15°C° 0 mm 1 m/S 587 mmHg 76%
    05:00 +15°C° 0 mm 1 m/S 587 mmHg 78%
    06:00 +16°C° 0 mm 1 m/S 588 mmHg 72%
    07:00 +19°C° 0 mm 1 m/S 589 mmHg 67%
    08:00 +20°C° 0 mm 1 m/S 590 mmHg 62%
    09:00 +22°C° 0 mm 1 m/S 590 mmHg 57%
    10:00 +23°C° 0 mm 1 m/S 591 mmHg 51%
    11:00 +25°C° 0 mm 2 m/S 591 mmHg 45%
    12:00 +25°C° 0 mm 2 m/S 590 mmHg 45%
    13:00 +25°C° 0 mm 2 m/S 590 mmHg 45%
    14:00 +25°C° 0 mm 3 m/S 589 mmHg 44%
    15:00 +22°C° 0.2 mm 3 m/S 589 mmHg 48%
    16:00 +21°C° 0.2 mm 2 m/S 588 mmHg 52%
    17:00 +20°C° 0.2 mm 2 m/S 588 mmHg 56%
    18:00 +19°C° 0.1 mm 2 m/S 588 mmHg 59%
    19:00 +19°C° 0.1 mm 1 m/S 588 mmHg 63%
    20:00 +19°C° 0.1 mm 1 m/S 588 mmHg 66%
    21:00 +18°C° 0.1 mm 1 m/S 588 mmHg 68%
    22:00 +18°C° 0.1 mm 1 m/S 588 mmHg 70%
    23:00 +16°C° 0.1 mm 1 m/S 588 mmHg 71%
    Mehr zeigen